IZ1MEU-13 Weather Reports


time (UTC)temp
C
wind
direction
speed
KPH
gust
KPH
rain 1hr
cm
rain 24hr
cm
rain mn
cm
humidity
%
barometer
mb
20260507092104 14 0.0 0.0 0.00 0.00 0.00 56 1016.5
20260507090100 13 0.0 0.0 0.00 0.00 0.00 60 1016.6
20260507084056 13 0.0 0.0 0.00 0.00 0.00 60 1016.3
20260507082052 13 0.0 0.0 0.00 0.00 0.00 62 1016.3
20260507080048 12 0.0 0.0 0.00 0.00 0.00 64 1016.1
20260507074043 11 0.0 0.0 0.00 0.00 0.00 65 1016.0
20260507072039 11 0.0 0.0 0.00 0.00 0.00 67 1016.0
20260507070035 11 0.0 0.0 0.00 0.00 0.00 66 1015.8
20260507064031 10 0.0 0.0 0.00 0.00 0.00 67 1015.5
20260507062026 11 0.0 0.0 0.00 0.00 0.00 66 1015.5
20260507060022 11 0.0 0.0 0.00 0.00 0.00 66 1015.3
20260507054018 11 0.0 0.0 0.00 0.00 0.00 66 1015.0
20260507052013 11 0.0 0.0 0.00 0.00 0.00 66 1014.6
20260507050009 11 0.0 0.0 0.00 0.00 0.00 66 1014.4
20260507044005 11 0.0 0.0 0.00 0.00 0.00 65 1014.3
20260507042000 11 0.0 0.0 0.00 0.00 0.00 65 1014.2
20260507035956 11 0.0 0.0 0.00 0.00 0.00 65 1014.1
20260507033951 11 0.0 0.0 0.00 0.00 0.00 65 1014.1
20260507031947 11 0.0 0.0 0.00 0.00 0.00 65 1013.9
20260507025942 11 0.0 0.0 0.00 0.00 0.00 65 1013.9
20260507023938 11 0.0 0.0 0.00 0.00 0.00 65 1013.9
20260507021934 11 0.0 0.0 0.00 0.00 0.00 65 1013.9
20260507015929 11 0.0 0.0 0.00 0.00 0.00 65 1013.9
20260507013925 11 0.0 0.0 0.00 0.00 0.00 65 1013.5
20260507011920 11 0.0 0.0 0.00 0.00 0.00 65 1013.4
20260507005916 11 0.0 0.0 0.00 0.00 0.00 65 1013.3
20260507003911 11 0.0 0.0 0.00 0.00 0.00 65 1013.3
20260507001907 11 0.0 0.0 0.00 0.00 0.00 65 1013.4
20260506235903 11 0.0 0.0 0.00 0.00 0.00 66 1013.4
20260506234842 11 0.0 0.0 0.00 0.00 0.00 65 1013.5
20260506232838 11 0.0 0.0 0.00 0.00 0.00 65 1013.3
20260506230833 11 0.0 0.0 0.00 0.00 0.00 65 1013.0
20260506224829 11 0.0 0.0 0.00 0.00 0.00 64 1012.7
20260506222824 11 0.0 0.0 0.00 0.00 0.00 64 1012.7
20260506220820 11 0.0 0.0 0.00 0.00 0.00 66 1012.8
20260506214816 11 0.0 0.0 0.00 0.00 0.00 66 1012.6
20260506212811 11 0.0 0.0 0.00 0.00 0.00 66 1012.4
20260506210807 11 0.0 0.0 0.00 0.00 0.00 67 1012.3
20260506204802 11 0.0 0.0 0.00 0.00 0.00 68 1012.4
20260506202758 11 0.0 0.0 0.00 0.00 0.00 70 1011.5
20260506200754 11 0.0 0.0 0.00 0.00 0.00 70 1011.0
20260506194749 11 0.0 0.0 0.00 0.00 0.00 69 1010.8
20260506192745 11 0.0 0.0 0.00 0.00 0.00 68 1010.3
20260506190741 11 0.0 0.0 0.00 0.00 0.00 66 1010.1
20260506184737 13 0.0 0.0 0.00 0.00 0.00 61 1010.3
20260506182732 13 0.0 0.0 0.00 0.00 0.00 61 1009.2
20260506180728 14 0.0 0.0 0.00 0.00 0.00 60 1008.8
20260506174724 15 0.0 0.0 0.00 0.00 0.00 60 1008.7
20260506172720 15 0.0 0.0 0.00 0.00 0.00 59 1008.5
20260506170715 15 0.0 0.0 0.00 0.00 0.00 57 1008.2
20260506164711 15 0.0 0.0 0.00 0.00 0.00 55 1008.1
20260506162707 15 0.0 0.0 0.00 0.00 0.00 53 1008.0
20260506160703 16 0.0 0.0 0.00 0.00 0.00 52 1008.0
20260506154658 16 0.0 0.0 0.00 0.00 0.00 51 1008.0
20260506152654 16 0.0 0.0 0.00 0.00 0.00 50 1008.0
20260506150650 19 0.0 0.0 0.00 0.00 0.00 45 1007.8
20260506144646 20 0.0 0.0 0.00 0.00 0.00 45 1007.8
20260506142641 20 0.0 0.0 0.00 0.00 0.00 44 1007.9
20260506140637 20 0.0 0.0 0.00 0.00 0.00 45 1008.1
20260506134633 20 0.0 0.0 0.00 0.00 0.00 45 1008.4
20260506132629 21 0.0 0.0 0.00 0.00 0.00 47 1008.5
20260506130624 20 0.0 0.0 0.00 0.00 0.00 49 1008.6
20260506124620 19 0.0 0.0 0.00 0.00 0.00 49 1008.7
20260506122616 20 0.0 0.0 0.00 0.00 0.00 49 1008.6
20260506120612 18 0.0 0.0 0.00 0.00 0.00 51 1008.7
20260506114607 18 0.0 0.0 0.00 0.00 0.00 50 1008.8
20260506112603 18 0.0 0.0 0.00 0.00 0.00 51 1008.9
20260506110559 17 0.0 0.0 0.00 0.00 0.00 54 1009.1
20260506104555 17 0.0 0.0 0.00 0.00 0.00 56 1009.3
20260506102550 16 0.0 0.0 0.00 0.00 0.00 57 1009.5
20260506100546 15 0.0 0.0 0.00 0.00 0.00 58 1009.5
20260506094542 15 0.0 0.0 0.00 0.00 0.00 58 1009.7